Location: Devore Heights
(34.2372°N, 117.4156°W)
Time: 04:21:32
(UTC+00:00)

S-56A Canister/Altair - Pass Details

Date: 16 September 2024
Orbit: 636 x 2487 km, 38.9° (Epoch: 05 October)

Event Time Altitude Azimuth Distance (km) Brightness Sun altitude
Rises 01:12:46 0° 233° (SW) 2,975 11.6 8.0°
Reaches altitude 10° 01:14:54 10° 229° (SW) 2,141 10.8 7.5°
Maximum altitude 01:19:39 59° 150° (SSE) 940 8.0 6.5°
Drops below altitude 10° 01:26:10 10° 72° (ENE) 2,916 9.9 5.2°
Sets 01:29:30 0° 70° (ENE) 4,167 10.7 4.5°
